Location: Newark
(3.0500°N, 36.0167°E)
Time: 09:48:38
(UTC+00:00)

Explorer 11/Cluster Stage 4 - All Passes

Search period start: 20 August 2019 00:00
Search period end: 30 August 2019 00:00
Orbit: 467 x 1260 km, 28.8° (Epoch: 19 August)

Date Brightness Start Highest point End Pass type
(mag) Time Alt. Az. Time Alt. Az. Time Alt. Az.
20 Aug - 02:59:39 10° S 03:01:54 12° SSE 03:04:15 10° SE visible
20 Aug - 04:44:23 10° SW 04:51:04 45° SSE 04:58:42 10° ENE daylight
20 Aug - 06:32:52 10° WSW 06:40:27 60° NNW 06:48:36 10° NE daylight
20 Aug - 08:24:23 10° WNW 08:30:28 23° NNW 08:36:30 10° NNE daylight
20 Aug - 14:02:33 10° N 14:03:24 10° NNE 14:04:15 10° NNE daylight
20 Aug - 15:48:25 10° NW 15:53:02 31° NNE 15:56:53 10° E daylight
20 Aug - 17:37:17 10° WNW 17:41:27 40° SSW 17:45:03 10° SE visible
21 Aug - 02:48:19 10° S 02:51:17 13° SSE 02:54:30 10° ESE visible
21 Aug - 04:33:40 10° SW 04:40:16 53° SSE 04:48:00 10° ENE daylight
21 Aug - 06:22:22 10° WSW 06:29:40 51° NNW 06:37:40 10° NE daylight
21 Aug - 08:14:13 10° WNW 08:19:50 20° NNW 08:25:28 10° NNE daylight
21 Aug - 13:50:12 10° N 13:53:01 13° NNE 13:55:36 10° NE daylight
21 Aug - 15:37:24 10° NW 15:42:34 40° NNE 15:46:46 10° E daylight
21 Aug - 17:26:50 10° W 17:30:55 31° SSW 17:34:27 10° SSE visible
22 Aug - 02:37:12 10° S 02:40:39 16° SSE 02:44:29 10° ESE visible
22 Aug - 04:23:01 10° SW 04:29:30 62° SSE 04:37:15 10° ENE daylight
22 Aug - 06:11:57 10° W 06:18:56 44° NNW 06:26:40 10° NE daylight
22 Aug - 08:04:09 10° WNW 08:09:15 18° NNW 08:14:23 10° NNE daylight
22 Aug - 13:38:38 10° NNW 13:42:35 16° NNE 13:46:07 10° NE daylight
22 Aug - 15:26:26 10° NW 15:32:04 52° NNE 15:36:33 10° ESE daylight
22 Aug - 17:16:26 10° W 17:20:22 25° SW 17:23:47 10° SSE visible
23 Aug - 02:26:13 10° S 02:30:00 18° SSE 02:34:19 10° ESE visible
23 Aug - 04:12:24 10° SW 04:18:44 73° SSE 04:26:27 10° ENE daylight
23 Aug - 06:01:37 10° W 06:08:14 37° NNW 06:15:39 10° NE daylight
23 Aug - 07:54:12 10° NW 07:58:41 16° NNW 08:03:14 10° NNE daylight
23 Aug - 13:27:16 10° NNW 13:32:08 20° NNE 13:36:21 10° ENE daylight
23 Aug - 15:15:32 10° NW 15:21:32 67° NNE 15:26:16 10° ESE daylight
23 Aug - 17:06:06 10° W 17:09:48 21° SW 17:13:02 10° SSE visible
24 Aug - 02:15:20 10° SSW 02:19:22 21° SE 02:24:01 10° E visible
24 Aug - 04:01:52 10° WSW 04:08:00 86° SSE 04:15:36 10° ENE daylight
24 Aug - 05:51:22 10° W 05:57:34 32° NNW 06:04:33 10° NE daylight
24 Aug - 07:44:22 10° NW 07:48:09 14° NNW 07:52:02 10° NNE daylight
24 Aug - 11:29:06 10° N 11:31:07 11° N 11:33:03 10° NNE daylight
24 Aug - 13:16:01 10° NNW 13:21:38 25° NNE 13:26:26 10° ENE daylight
24 Aug - 15:04:38 10° WNW 15:10:58 84° NNE 15:15:55 10° ESE daylight
24 Aug - 16:55:51 10° WSW 16:59:14 18° SW 17:02:14 10° S visible
25 Aug - 02:04:32 10° SSW 02:08:43 24° SE 02:13:39 10° E visible
25 Aug - 03:51:24 10° WSW 03:57:19 80° NNW 04:04:42 10° ENE daylight
25 Aug - 05:41:13 10° WNW 05:46:57 27° NNW 05:53:25 10° NNE daylight
25 Aug - 07:34:42 10° NW 07:37:39 12° NNW 07:40:42 10° N daylight
25 Aug - 11:17:22 10° NNW 11:20:41 13° NNE 11:23:49 10° NE daylight
25 Aug - 13:04:50 10° NW 13:11:06 30° NNE 13:16:24 10° E daylight
25 Aug - 14:53:47 10° WNW 15:00:21 79° SSW 15:05:30 10° SE daylight
25 Aug - 16:45:43 10° WSW 16:48:39 15° SW 16:51:17 10° S visible
26 Aug - 01:53:47 10° SSW 01:58:04 28° SE 02:03:11 10° E visible
26 Aug - 03:41:00 10° WSW 03:46:39 66° NNW 03:53:45 10° NE daylight
26 Aug - 05:31:10 10° WNW 05:36:23 23° NNW 05:42:13 10° NNE daylight
26 Aug - 07:25:20 10° NNW 07:27:12 11° N 07:29:06 10° N daylight
26 Aug - 11:05:56 10° NNW 11:10:11 15° NNE 11:14:12 10° NE daylight
26 Aug - 12:53:42 10° NW 13:00:31 36° NNE 13:06:15 10° E daylight
26 Aug - 14:42:58 10° WNW 14:49:41 65° SSW 14:55:01 10° SE daylight
26 Aug - 16:35:46 10° WSW 16:38:03 13° SW 16:40:11 10° S visible
27 Aug - 01:43:07 10° SSW 01:47:26 33° SE 01:52:40 10° E visible
27 Aug - 03:30:40 10° WSW 03:36:02 54° NNW 03:42:46 10° NE daylight
27 Aug - 05:21:15 10° WNW 05:25:50 19° NNW 05:30:57 10° NNE daylight
27 Aug - 10:54:38 10° NNW 10:59:39 17° NNE 11:04:24 10° ENE daylight
27 Aug - 12:42:36 10° NW 12:49:53 43° NNE 12:56:01 10° E daylight
27 Aug - 14:32:12 10° WNW 14:39:01 54° SSW 14:44:28 10° SE daylight
27 Aug - 16:26:16 10° SW 16:27:29 11° SSW 16:28:39 10° SSW visible
28 Aug - 01:32:31 10° SW 01:36:49 40° SE 01:42:05 10° ENE visible
28 Aug - 03:20:25 10° W 03:25:28 43° NNW 03:31:44 10° NE daylight
28 Aug - 05:11:28 10° NW 05:15:21 16° NNW 05:19:36 10° NNE daylight
28 Aug - 10:43:26 10° NNW 10:49:06 20° NNE 10:54:27 10° ENE daylight
28 Aug - 12:31:34 10° NW 12:39:13 52° NNE 12:45:41 10° ESE daylight
28 Aug - 14:21:29 10° WNW 14:28:18 46° SSW 14:33:52 10° SE daylight
29 Aug - 01:21:58 10° SW 01:26:13 50° SSE 01:31:28 10° ENE visible
29 Aug - 03:10:15 10° W 03:14:55 35° NNW 03:20:40 10° NE visible
29 Aug - 05:01:56 10° NW 05:04:53 13° NNW 05:08:05 10° NNE daylight
29 Aug - 08:45:57 10° N 08:47:33 11° NNE 08:49:09 10° NNE daylight
29 Aug - 10:32:17 10° NNW 10:38:30 23° NNE 10:44:25 10° ENE daylight
29 Aug - 12:20:34 10° NW 12:28:30 62° NNE 12:35:17 10° ESE daylight
29 Aug - 14:10:49 10° W 14:17:35 39° SSW 14:23:12 10° SE daylight
